RH
96 98 96 95 96 95 95 96 96 96 94 95 95 98 90 86 88 86 98 100 97 97 98 92 36 28 37
97 96 96 96 95 95 96 96 95 95 95 98 100 100 92 94 95 90 92 96 96 96 97 70 57 50 46
96 96 96 96 96 95 94 96 88 90 92 96 98 97 97 93 90 88 90 98 91 99 94 91 78 73 55
98 94 96 97 91 95 96 96 95 86 89 94 97 97 97 97 94 91 95 96 99 99 100 96 83 70 35
76 57 82 88 96 97 95 90 90 91 92 96 96 96 96 97 89 94 99 100 99 100 100 93 78 54 42
6 6 8 47 41 52 77 87 95 100 100 98 95 88 86 86 87 90 92 99 92 92 81 64 60 60 52
11 11 10 8 12 19 51 70 54 57 96 96 98 95 98 95 94 97 99 92 90 75 68 69 68 58 37
13 13 12 12 11 9 11 36 87 94 81 40 70 95 98 97 100 98 97 94 84 81 81 81 77 77 67
13 12 11 10 10 12 11 10 13 37 100 94 95 99 98 96 98 100 99 98 96 89 90 90 79 75 70
11 10 8 8 8 7 10 11 13 10 13 74 97 100 98 95 95 96 97 100 97 96 80 77 75 71 58
15 12 11 9 5 3 4 6 11 10 11 38 96 100 99 92 99 97 97 98 96 96 85 83 85 70 54
12 9 6 5 4 3 3 3 8 11 13 13 27 54 96 100 99 94 98 100 97 94 91 99 93 79 66
6 5 4 3 3 3 3 3 8 11 14 13 26 24 65 100 100 96 96 99 99 97 99 100 97 79 67
2 2 2 3 4 4 4 4 7 12 33 36 51 68 61 88 100 100 100 100 100 99 98 97 71 60 61
4 3 4 5 6 8 7 7 24 28 94 80 99 87 99 100 100 100 100 99 100 98 96 70 55 60 66
16 14 11 14 25 25 17 16 12 66 100 92 99 100 100 97 100 100 98 100 96 77 71 65 68 77 71
29 31 34 35 37 52 98 67 22 20 79 100 89 99 100 100 100 100 100 100 99 85 72 80 82 72 68
Wind_Speed
47 49 51 54 49 50 48 47 46 49 49 48 52 48 44 43 44 44 41 40 39 40 44 34 30 26 24
51 51 51 52 50 53 55 53 50 47 47 50 50 51 46 45 46 45 41 41 42 44 42 27 30 29 30
47 48 49 54 59 63 57 56 54 53 53 51 56 52 45 47 46 46 42 40 40 45 40 36 36 35 33
51 53 53 44 44 45 49 50 53 55 55 52 49 49 48 48 46 43 41 41 38 38 41 39 35 35 32
42 41 39 41 46 45 49 47 45 45 44 43 43 42 40 39 38 38 39 39 42 40 40 36 34 35 34
50 49 47 45 41 44 43 42 41 39 39 38 37 38 39 38 38 39 39 39 36 32 31 31 34 36 36
55 55 55 53 52 53 51 44 41 46 42 42 43 44 43 43 41 43 41 37 35 34 32 34 35 37 36
66 65 65 63 61 58 56 56 52 54 54 47 51 49 44 44 46 46 44 41 39 36 36 36 37 39 39
77 76 75 73 69 68 65 63 62 61 62 60 59 54 51 47 48 53 50 52 43 40 41 40 37 35 31
87 86 84 82 82 78 73 72 69 68 66 66 66 63 63 57 56 53 45 48 49 47 40 36 32 28 30
95 94 93 93 89 86 85 80 79 74 72 72 71 62 58 53 48 50 46 48 49 47 41 36 33 29 30
104 104 104 102 98 90 87 86 86 82 80 79 76 77 77 70 68 54 55 53 52 44 40 39 30 28 28
116 117 116 111 105 94 91 92 91 90 87 83 80 79 75 62 58 64 55 56 50 41 39 31 28 25 26
107 106 99 92 86 85 90 93 94 90 83 81 78 77 73 63 62 59 57 55 55 50 46 35 28 28 30
73 72 71 71 71 75 86 89 83 82 73 73 71 72 68 60 62 61 62 63 60 53 34 31 33 33 32
51 51 55 62 65 66 70 74 75 67 53 67 64 58 63 60 58 61 62 53 42 37 34 35 35 33 34
40 41 44 48 50 47 39 46 63 75 72 64 72 60 54 60 65 57 56 54 44 39 39 38 38 38 38
Wind_Direction
260 261 263 261 257 254 255 257 259 265 263 267 264 265 278 274 275 276 268 263 267 274 275 260 260 266 276
257 259 257 253 256 259 260 260 261 263 268 263 264 263 271 269 269 268 272 264 269 275 270 252 255 265 273
258 263 264 259 258 257 259 258 259 264 266 267 259 266 268 265 266 267 261 271 275 272 259 250 256 264 270
264 267 264 266 261 262 261 263 264 268 266 266 259 258 258 258 264 266 266 271 268 269 261 258 259 265 271
279 279 279 276 261 261 263 264 259 262 260 254 250 249 251 257 260 265 264 268 269 266 262 260 259 260 273
271 274 274 268 268 270 276 284 265 250 248 251 250 255 256 258 262 261 261 262 257 252 251 255 256 269 276
268 269 269 269 264 265 263 260 262 273 259 257 255 254 255 255 256 256 255 250 247 248 253 256 263 268 272
268 266 267 265 264 262 260 260 253 256 256 261 264 261 251 253 248 255 249 249 251 255 256 258 265 269 270
269 268 269 268 263 258 258 255 256 254 253 256 258 260 255 255 252 251 255 259 251 250 258 261 260 262 261
266 266 267 266 265 262 255 253 249 253 254 252 254 257 253 252 257 258 261 259 251 250 257 255 247 245 253
267 267 267 267 265 261 258 253 250 249 249 246 247 246 246 247 250 259 256 257 252 248 245 240 247 246 251
270 270 270 268 265 260 253 250 246 244 242 244 244 246 247 250 254 252 250 247 248 239 237 246 241 244 247
265 265 265 265 263 257 248 244 241 241 238 239 241 244 245 245 243 240 249 242 233 229 228 239 241 241 247
267 264 261 257 252 245 241 238 237 238 236 238 241 238 243 242 239 237 235 236 232 229 242 255 241 241 249
266 261 253 246 242 237 236 235 233 231 227 230 234 242 238 232 235 230 241 245 241 246 251 243 238 245 248
256 250 242 237 234 232 236 236 230 215 214 215 222 225 230 232 234 227 234 238 244 244 244 236 243 247 248
250 244 238 236 234 228 230 232 226 219 219 219 227 223 228 220 212 241 245 244 235 233 230 236 243 245 245